| time (UTC) | temp F | wind direction | speed MPH | gust MPH | rain 1hr in | rain 24hr in | rain mn in | humidity % | barometer mb |
| 20260902220824 | 67 | 70 | 1.0 | 5.0 | 0.00 | 0.00 | 0.00 | 84 | 1015.0 |
| 20260902220317 | 67 | 119 | 1.0 | 5.0 | 0.00 | 0.00 | 0.00 | 84 | 1015.0 |
| 20260902215824 | 67 | 121 | 1.0 | 2.0 | 0.00 | 0.00 | 0.00 | 84 | 1014.9 |
| 20260902215329 | 67 | 115 | 0.0 | 3.0 | 0.00 | 0.00 | 0.00 | 86 | 1014.9 |
| 20260902214833 | 68 | 138 | 1.0 | 3.0 | 0.00 | 0.00 | 0.00 | 84 | 1014.9 |
| 20260902214323 | 68 | 140 | 1.0 | 3.0 | 0.00 | 0.00 | 0.00 | 85 | 1015.3 |
| 20260902213822 | 68 | 162 | 1.0 | 3.0 | 0.00 | 0.00 | 0.00 | 86 | 1015.3 |
| 20260902213329 | 68 | 131 | 1.0 | 3.0 | 0.00 | 0.00 | 0.00 | 83 | 1015.3 |
| 20260902212816 | 68 | 262 | 0.0 | 1.0 | 0.00 | 0.00 | 0.00 | 87 | 1015.4 |
| 20260902212324 | 68 | 111 | 0.0 | 0.0 | 0.00 | 0.00 | 0.00 | 86 | 1015.4 |
| 20260902211824 | 68 | 111 | 0.0 | 0.0 | 0.00 | 0.00 | 0.00 | 86 | 1015.4 |
| 20260902211344 | 68 | 111 | 0.0 | 2.0 | 0.00 | 0.00 | 0.00 | 83 | 1015.2 |
| 20260902210855 | 68 | 111 | 0.0 | 3.0 | 0.00 | 0.00 | 0.00 | 85 | 1015.2 |
| 20260902210329 | 68 | 113 | 1.0 | 3.0 | 0.00 | 0.00 | 0.00 | 82 | 1015.2 |
| 20260902205844 | 69 | 126 | 1.0 | 4.0 | 0.00 | 0.00 | 0.00 | 83 | 1015.2 |
| 20260902205323 | 69 | 216 | 1.0 | 4.0 | 0.00 | 0.00 | 0.00 | 84 | 1015.2 |
| 20260902204828 | 69 | 196 | 1.0 | 4.0 | 0.00 | 0.00 | 0.00 | 82 | 1015.2 |
| 20260902204328 | 69 | 88 | 1.0 | 4.0 | 0.00 | 0.00 | 0.00 | 81 | 1015.0 |
| 20260902203841 | 69 | 147 | 1.0 | 4.0 | 0.00 | 0.00 | 0.00 | 81 | 1015.0 |
| 20260902203314 | 69 | 204 | 1.0 | 8.0 | 0.00 | 0.00 | 0.00 | 80 | 1015.0 |
| 20260902202822 | 69 | 85 | 2.0 | 8.0 | 0.00 | 0.00 | 0.00 | 80 | 1015.0 |
| 20260902202350 | 69 | 111 | 2.0 | 8.0 | 0.00 | 0.00 | 0.00 | 79 | 1015.0 |
| 20260902201813 | 70 | 179 | 3.0 | 8.0 | 0.00 | 0.00 | 0.00 | 80 | 1015.0 |
| 20260902201317 | 70 | 245 | 4.0 | 8.0 | 0.00 | 0.00 | 0.00 | 78 | 1014.9 |
| 20260902200823 | 70 | 190 | 4.0 | 8.0 | 0.00 | 0.00 | 0.00 | 79 | 1014.9 |
| 20260902200316 | 70 | 246 | 3.0 | 7.0 | 0.00 | 0.00 | 0.00 | 80 | 1014.9 |
| 20260902195824 | 70 | 206 | 3.0 | 6.0 | 0.00 | 0.00 | 0.00 | 82 | 1015.1 |
| 20260902195329 | 70 | 186 | 2.0 | 6.0 | 0.00 | 0.00 | 0.00 | 82 | 1015.1 |
| 20260902194820 | 69 | 148 | 3.0 | 6.0 | 0.00 | 0.00 | 0.00 | 80 | 1015.1 |
| 20260902194337 | 69 | 210 | 2.0 | 6.0 | 0.00 | 0.00 | 0.00 | 80 | 1015.3 |
| 20260902193840 | 69 | 177 | 1.0 | 2.0 | 0.00 | 0.00 | 0.00 | 85 | 1015.3 |
| 20260902193336 | 69 | 240 | 0.0 | 2.0 | 0.00 | 0.00 | 0.00 | 86 | 1015.3 |
| 20260902192855 | 69 | 148 | 0.0 | 1.0 | 0.00 | 0.00 | 0.00 | 86 | 1015.5 |
| 20260902192342 | 69 | 148 | 0.0 | 1.0 | 0.00 | 0.00 | 0.00 | 86 | 1015.5 |
| 20260902191855 | 69 | 148 | 0.0 | 1.0 | 0.00 | 0.00 | 0.00 | 85 | 1015.5 |
| 20260902191348 | 69 | 148 | 0.0 | 1.0 | 0.00 | 0.00 | 0.00 | 85 | 1015.9 |
| 20260902190834 | 69 | 128 | 0.0 | 2.0 | 0.00 | 0.00 | 0.00 | 86 | 1015.9 |
| 20260902190328 | 69 | 101 | 0.0 | 2.0 | 0.00 | 0.01 | 0.00 | 85 | 1015.9 |
| 20260902185847 | 69 | 101 | 0.0 | 2.0 | 0.00 | 0.01 | 0.00 | 84 | 1016.1 |
| 20260902185326 | 69 | 130 | 0.0 | 2.0 | 0.00 | 0.01 | 0.00 | 84 | 1016.1 |
| 20260902184815 | 69 | 111 | 0.0 | 2.0 | 0.00 | 0.01 | 0.00 | 83 | 1016.1 |
| 20260902184323 | 70 | 136 | 1.0 | 6.0 | 0.00 | 0.01 | 0.00 | 81 | 1015.9 |
| 20260902183849 | 70 | 125 | 1.0 | 6.0 | 0.00 | 0.01 | 0.00 | 84 | 1015.9 |
| 20260902183331 | 70 | 113 | 2.0 | 5.0 | 0.00 | 0.01 | 0.00 | 79 | 1015.9 |
| 20260902182834 | 70 | 242 | 2.0 | 5.0 | 0.00 | 0.01 | 0.00 | 76 | 1015.9 |
| 20260902182317 | 71 | 162 | 1.0 | 5.0 | 0.00 | 0.01 | 0.00 | 76 | 1015.9 |
| 20260902181845 | 71 | 286 | 1.0 | 4.0 | 0.00 | 0.01 | 0.00 | 82 | 1015.9 |
| 20260902181316 | 72 | 211 | 2.0 | 4.0 | 0.00 | 0.01 | 0.00 | 83 | 1015.9 |
| 20260902180849 | 72 | 360 | 1.0 | 3.0 | 0.00 | 0.01 | 0.00 | 82 | 1015.9 |
| 20260902180340 | 71 | 273 | 1.0 | 3.0 | 0.00 | 0.01 | 0.00 | 82 | 1015.9 |
| 20260902175835 | 71 | 123 | 1.0 | 2.0 | 0.00 | 0.01 | 0.00 | 80 | 1015.9 |
| 20260902175314 | 70 | 172 | 0.0 | 2.0 | 0.00 | 0.01 | 0.00 | 81 | 1015.9 |
| 20260902174809 | 70 | 252 | 0.0 | 3.0 | 0.00 | 0.01 | 0.00 | 81 | 1015.9 |
| 20260902174322 | 70 | 252 | 1.0 | 3.0 | 0.00 | 0.01 | 0.00 | 79 | 1016.0 |
| 20260902173834 | 70 | 106 | 1.0 | 3.0 | 0.00 | 0.01 | 0.00 | 80 | 1016.0 |
| 20260902173317 | 70 | 159 | 1.0 | 3.0 | 0.00 | 0.01 | 0.00 | 81 | 1016.0 |
| 20260902172822 | 71 | 80 | 1.0 | 3.0 | 0.00 | 0.01 | 0.00 | 80 | 1016.0 |
| 20260902172335 | 71 | 209 | 0.0 | 3.0 | 0.00 | 0.01 | 0.00 | 81 | 1016.0 |
| 20260902171817 | 71 | 192 | 0.0 | 3.0 | 0.00 | 0.01 | 0.00 | 82 | 1016.0 |
| 20260902171322 | 71 | 253 | 1.0 | 3.0 | 0.00 | 0.01 | 0.00 | 80 | 1015.9 |
| 20260902170833 | 70 | 272 | 0.0 | 2.0 | 0.00 | 0.01 | 0.00 | 82 | 1015.9 |
| 20260902170326 | 70 | 269 | 1.0 | 3.0 | 0.00 | 0.01 | 0.00 | 80 | 1015.9 |
| 20260902165832 | 70 | 176 | 0.0 | 3.0 | 0.00 | 0.01 | 0.00 | 81 | 1016.2 |
| 20260902165324 | 70 | 234 | 0.0 | 7.0 | 0.00 | 0.01 | 0.00 | 79 | 1016.2 |
| 20260902164818 | 70 | 290 | 2.0 | 7.0 | 0.00 | 0.01 | 0.00 | 78 | 1016.2 |
| 20260902164335 | 70 | 243 | 3.0 | 7.0 | 0.00 | 0.01 | 0.00 | 76 | 1016.0 |
| 20260902163902 | 70 | 143 | 4.0 | 7.0 | 0.00 | 0.01 | 0.00 | 74 | 1016.0 |
| 20260902163315 | 70 | 152 | 3.0 | 5.0 | 0.00 | 0.01 | 0.00 | 75 | 1016.0 |
| 20260902162824 | 70 | 221 | 2.0 | 7.0 | 0.00 | 0.01 | 0.00 | 79 | 1016.3 |
| 20260902162328 | 69 | 55 | 2.0 | 7.0 | 0.00 | 0.01 | 0.00 | 80 | 1016.3 |
| 20260902161836 | 69 | 136 | 1.0 | 5.0 | 0.00 | 0.01 | 0.00 | 78 | 1016.3 |
| 20260902161322 | 68 | 209 | 2.0 | 5.0 | 0.00 | 0.01 | 0.00 | 79 | 1016.4 |
| 20260902160814 | 68 | 105 | 2.0 | 7.0 | 0.00 | 0.01 | 0.00 | 79 | 1016.4 |
| 20260902160326 | 68 | 142 | 3.0 | 6.0 | 0.00 | 0.04 | 0.00 | 79 | 1016.4 |
| 20260902155812 | 68 | 161 | 2.0 | 5.0 | 0.00 | 0.04 | 0.00 | 79 | 1016.5 |
| 20260902155320 | 68 | 172 | 1.0 | 8.0 | 0.00 | 0.04 | 0.00 | 79 | 1016.5 |
| 20260902154843 | 68 | 121 | 2.0 | 8.0 | 0.00 | 0.04 | 0.00 | 79 | 1016.5 |
| 20260902154317 | 68 | 237 | 2.0 | 6.0 | 0.00 | 0.04 | 0.00 | 77 | 1017.0 |
| 20260902153859 | 68 | 288 | 2.0 | 6.0 | 0.00 | 0.04 | 0.00 | 78 | 1017.0 |
| 20260902153312 | 68 | 253 | 2.0 | 6.0 | 0.00 | 0.04 | 0.00 | 79 | 1017.0 |
| 20260902152818 | 68 | 186 | 3.0 | 7.0 | 0.00 | 0.04 | 0.00 | 78 | 1016.9 |
| 20260902152321 | 68 | 209 | 2.0 | 9.0 | 0.00 | 0.04 | 0.00 | 78 | 1016.9 |
| 20260902151825 | 67 | 46 | 3.0 | 9.0 | 0.00 | 0.04 | 0.00 | 79 | 1016.9 |
| 20260902151330 | 67 | 199 | 2.0 | 9.0 | 0.00 | 0.04 | 0.00 | 79 | 1017.0 |
| 20260902150824 | 67 | 39 | 2.0 | 9.0 | 0.00 | 0.04 | 0.00 | 78 | 1017.0 |
| 20260902150327 | 67 | 234 | 2.0 | 7.0 | 0.00 | 0.08 | 0.00 | 79 | 1017.0 |
| 20260902145816 | 67 | 163 | 3.0 | 7.0 | 0.00 | 0.08 | 0.00 | 78 | 1016.9 |
| 20260902145338 | 68 | 198 | 2.0 | 7.0 | 0.00 | 0.08 | 0.00 | 78 | 1016.9 |
| 20260902144842 | 68 | 130 | 2.0 | 5.0 | 0.00 | 0.08 | 0.00 | 80 | 1016.9 |
| 20260902144336 | 68 | 166 | 2.0 | 4.0 | 0.00 | 0.08 | 0.00 | 82 | 1017.2 |
| 20260902143818 | 67 | 228 | 1.0 | 4.0 | 0.00 | 0.08 | 0.00 | 81 | 1017.2 |
| 20260902143325 | 67 | 59 | 1.0 | 4.0 | 0.00 | 0.08 | 0.00 | 80 | 1017.2 |
| 20260902142828 | 67 | 171 | 1.0 | 6.0 | 0.00 | 0.08 | 0.00 | 80 | 1017.0 |
| 20260902142324 | 67 | 242 | 327.0 | 7.0 | 0.00 | 0.08 | 0.00 | 81 | 1017.0 |
| 20260902141815 | 0 | 0.0 | 0.0 | 0.00 | 0.08 | 0.00 | 1017.0 | ||
| 20260902141318 | 0 | 0.0 | 0.0 | 0.00 | 0.08 | 0.00 | 1017.1 | ||
| 20260902140822 | 0 | 0.0 | 0.0 | 0.00 | 0.08 | 0.00 | 1017.1 | ||
| 20260902140324 | 0 | 0.0 | 0.0 | 0.00 | 0.08 | 0.00 | 1017.1 | ||
| 20260902135842 | 0 | 0.0 | 0.0 | 0.00 | 0.08 | 0.00 | 1017.0 | ||
| 20260902135332 | 0 | 0.0 | 0.0 | 0.00 | 0.08 | 0.00 | 1017.0 | ||
| 20260902134852 | 0 | 0.0 | 0.0 | 0.00 | 0.08 | 0.00 | 1017.0 | ||
| 20260902134327 | 0 | 0.0 | 0.0 | 0.00 | 0.08 | 0.00 | 1016.5 | ||
| 20260902133851 | 0 | 0.0 | 0.0 | 0.00 | 0.08 | 0.00 | 1016.5 | ||
| 20260902133333 | 0 | 0.0 | 0.0 | 0.00 | 0.08 | 0.00 | 1016.5 | ||
| 20260902132843 | 0 | 0.0 | 0.0 | 0.00 | 0.08 | 0.00 | 1016.4 | ||
| 20260902132336 | 0 | 0.0 | 0.0 | 0.00 | 0.08 | 0.00 | 1016.4 | ||
| 20260902131839 | 0 | 0.0 | 0.0 | 0.00 | 0.08 | 0.00 | 1016.4 | ||
| 20260902131342 | 0 | 0.0 | 0.0 | 0.00 | 0.08 | 0.00 | 1016.1 | ||
| 20260902130825 | 0 | 0.0 | 0.0 | 0.00 | 0.08 | 0.00 | 1016.1 | ||
| 20260902130328 | 0 | 0.0 | 0.0 | 0.00 | 0.08 | 0.00 | 1016.1 | ||
| 20260902125835 | 0 | 0.0 | 0.0 | 0.00 | 0.08 | 0.00 | 1016.3 | ||
| 20260902125333 | 0 | 0.0 | 0.0 | 0.00 | 0.08 | 0.00 | 1016.3 | ||
| 20260902124817 | 0 | 0.0 | 0.0 | 0.00 | 0.08 | 0.00 | 1016.3 | ||
| 20260902124321 | 0 | 0.0 | 0.0 | 0.00 | 0.08 | 0.00 | 1016.2 | ||
| 20260902123833 | 0 | 0.0 | 0.0 | 0.00 | 0.08 | 0.00 | 1016.2 | ||
| 20260902123351 | 0 | 0.0 | 0.0 | 0.00 | 0.08 | 0.00 | 1016.2 | ||
| 20260902122829 | 0 | 0.0 | 0.0 | 0.00 | 0.08 | 0.00 | 1016.2 | ||
| 20260902122332 | 0 | 0.0 | 0.0 | 0.00 | 0.08 | 0.00 | 1016.2 | ||
| 20260902121818 | 0 | 0.0 | 0.0 | 0.00 | 0.08 | 0.00 | 1016.2 | ||
| 20260902121328 | 0 | 0.0 | 0.0 | 0.00 | 0.08 | 0.00 | 1015.9 | ||
| 20260902120833 | 0 | 0.0 | 0.0 | 0.00 | 0.08 | 0.00 | 1015.9 | ||
| 20260902115817 | 0 | 0.0 | 0.0 | 0.00 | 0.09 | 0.00 | 1016.0 | ||
| 20260902115320 | 0 | 0.0 | 0.0 | 0.00 | 0.09 | 0.00 | 1016.0 | ||
| 20260902114844 | 0 | 0.0 | 0.0 | 0.00 | 0.09 | 0.00 | 1016.0 | ||
| 20260902114338 | 0 | 0.0 | 0.0 | 0.00 | 0.09 | 0.00 | 1016.4 | ||
| 20260902113820 | 0 | 0.0 | 0.0 | 0.00 | 0.09 | 0.00 | 1016.4 | ||
| 20260902113323 | 0 | 0.0 | 0.0 | 0.00 | 0.09 | 0.00 | 1016.4 | ||
| 20260902112818 | 0 | 0.0 | 0.0 | 0.00 | 0.09 | 0.00 | 1016.5 | ||
| 20260902112340 | 0 | 0.0 | 0.0 | 0.00 | 0.09 | 0.00 | 1016.5 | ||
| 20260902111840 | 0 | 0.0 | 0.0 | 0.00 | 0.09 | 0.00 | 1016.5 | ||
| 20260902111348 | 0 | 0.0 | 0.0 | 0.00 | 0.09 | 0.00 | 1016.4 | ||
| 20260902110822 | 0 | 0.0 | 0.0 | 0.00 | 0.09 | 0.00 | 1016.4 | ||
| 20260902110325 | 0 | 0.0 | 0.0 | 0.00 | 0.25 | 0.00 | 1016.4 | ||
| 20260902105813 | 0 | 0.0 | 0.0 | 0.00 | 0.25 | 0.00 | 1016.4 | ||
| 20260902105328 | 0 | 0.0 | 0.0 | 0.00 | 0.25 | 0.00 | 1016.4 | ||
| 20260902104834 | 0 | 0.0 | 0.0 | 0.00 | 0.25 | 0.00 | 1016.4 | ||
| 20260902104339 | 0 | 0.0 | 0.0 | 0.00 | 0.25 | 0.00 | 1016.0 | ||
| 20260902103323 | 0 | 0.0 | 0.0 | 0.00 | 0.25 | 0.00 | 1016.0 | ||
| 20260902102827 | 0 | 0.0 | 0.0 | 0.00 | 0.25 | 0.00 | 1016.0 | ||
| 20260902102313 | 0 | 0.0 | 0.0 | 0.00 | 0.25 | 0.00 | 1016.0 | ||
| 20260902101814 | 0 | 0.0 | 0.0 | 0.00 | 0.25 | 0.00 | 1016.0 | ||
| 20260902101325 | 0 | 0.0 | 0.0 | 0.00 | 0.25 | 0.00 | 1016.2 | ||
| 20260902100816 | 0 | 0.0 | 0.0 | 0.00 | 0.25 | 0.00 | 1016.2 | ||
| 20260902100332 | 0 | 0.0 | 0.0 | 0.00 | 0.28 | 0.00 | 1016.2 | ||
| 20260902095815 | 0 | 0.0 | 0.0 | 0.00 | 0.28 | 0.00 | 1015.9 | ||
| 20260902095322 | 0 | 0.0 | 0.0 | 0.00 | 0.28 | 0.00 | 1015.9 | ||
| 20260902094816 | 0 | 0.0 | 0.0 | 0.00 | 0.28 | 0.00 | 1015.9 | ||
| 20260902094338 | 0 | 0.0 | 0.0 | 0.00 | 0.28 | 0.00 | 1015.9 | ||
| 20260902093829 | 0 | 0.0 | 0.0 | 0.00 | 0.28 | 0.00 | 1015.9 | ||
| 20260902093332 | 0 | 0.0 | 0.0 | 0.00 | 0.28 | 0.00 | 1015.9 | ||
| 20260902092854 | 64 | 128 | 0.0 | 2.0 | 0.00 | 0.28 | 0.00 | 88 | 1015.9 |
| 20260902092330 | 64 | 128 | 0.0 | 2.0 | 0.00 | 0.28 | 0.00 | 88 | 1015.9 |
| 20260902091817 | 64 | 128 | 0.0 | 2.0 | 0.00 | 0.28 | 0.00 | 88 | 1015.9 |
| 20260902091322 | 64 | 211 | 0.0 | 1.0 | 0.00 | 0.28 | 0.00 | 88 | 1015.9 |
| 20260902090831 | 64 | 211 | 0.0 | 2.0 | 0.00 | 0.28 | 0.00 | 87 | 1015.9 |
| 20260902090335 | 64 | 211 | 1.0 | 2.0 | 0.00 | 0.28 | 0.00 | 87 | 1015.9 |
| 20260902085838 | 64 | 211 | 1.0 | 4.0 | 0.00 | 0.28 | 0.00 | 83 | 1015.7 |
| 20260902085339 | 64 | 224 | 1.0 | 4.0 | 0.00 | 0.28 | 0.00 | 83 | 1015.7 |
| 20260902084828 | 64 | 240 | 1.0 | 7.0 | 0.00 | 0.28 | 0.00 | 83 | 1015.7 |
| 20260902084341 | 64 | 234 | 1.0 | 7.0 | 0.00 | 0.28 | 0.00 | 83 | 1015.5 |
| 20260902083820 | 64 | 215 | 1.0 | 7.0 | 0.00 | 0.28 | 0.00 | 83 | 1015.5 |
| 20260902083356 | 64 | 193 | 2.0 | 7.0 | 0.00 | 0.28 | 0.00 | 84 | 1015.5 |
| 20260902082820 | 64 | 134 | 2.0 | 7.0 | 0.00 | 0.28 | 0.00 | 83 | 1015.6 |
| 20260902082324 | 64 | 269 | 1.0 | 6.0 | 0.00 | 0.28 | 0.00 | 83 | 1015.6 |
| 20260902081815 | 64 | 63 | 1.0 | 7.0 | 0.00 | 0.28 | 0.00 | 83 | 1015.6 |
| 20260902081318 | 64 | 295 | 1.0 | 6.0 | 0.00 | 0.28 | 0.00 | 83 | 1015.5 |
| 20260902080824 | 64 | 283 | 1.0 | 6.0 | 0.00 | 0.28 | 0.00 | 83 | 1015.5 |
| 20260902080319 | 64 | 29 | 1.0 | 6.0 | 0.00 | 0.28 | 0.00 | 83 | 1015.5 |
| 20260902075826 | 64 | 198 | 1.0 | 2.0 | 0.00 | 0.28 | 0.00 | 83 | 1015.5 |
| 20260902075403 | 64 | 85 | 1.0 | 3.0 | 0.00 | 0.28 | 0.00 | 85 | 1015.5 |
| 20260902074832 | 65 | 305 | 1.0 | 3.0 | 0.00 | 0.28 | 0.00 | 85 | 1015.5 |
| 20260902074317 | 65 | 263 | 1.0 | 3.0 | 0.00 | 0.28 | 0.00 | 84 | 1015.5 |
| 20260902073823 | 65 | 211 | 1.0 | 3.0 | 0.00 | 0.28 | 0.00 | 84 | 1015.5 |
| 20260902073346 | 65 | 235 | 1.0 | 4.0 | 0.00 | 0.28 | 0.00 | 84 | 1015.5 |
| 20260902072829 | 65 | 127 | 1.0 | 4.0 | 0.00 | 0.28 | 0.00 | 84 | 1015.6 |
| 20260902072341 | 65 | 213 | 1.0 | 5.0 | 0.00 | 0.28 | 0.00 | 83 | 1015.6 |
| 20260902071824 | 65 | 197 | 1.0 | 5.0 | 0.00 | 0.28 | 0.00 | 83 | 1015.6 |
| 20260902071341 | 65 | 303 | 1.0 | 6.0 | 0.00 | 0.28 | 0.00 | 83 | 1015.4 |
| 20260902070829 | 65 | 184 | 1.0 | 6.0 | 0.00 | 0.28 | 0.00 | 84 | 1015.4 |
| 20260902070340 | 65 | 257 | 1.0 | 7.0 | 0.00 | 0.28 | 0.00 | 84 | 1015.4 |
| 20260902065815 | 65 | 76 | 1.0 | 7.0 | 0.00 | 0.28 | 0.00 | 85 | 1015.4 |
| 20260902065343 | 65 | 141 | 1.0 | 7.0 | 0.00 | 0.28 | 0.00 | 84 | 1015.4 |
| 20260902064828 | 65 | 198 | 1.0 | 7.0 | 0.00 | 0.28 | 0.00 | 85 | 1015.4 |
| 20260902064319 | 65 | 241 | 2.0 | 7.0 | 0.00 | 0.28 | 0.00 | 84 | 1015.6 |
| 20260902063822 | 65 | 180 | 2.0 | 7.0 | 0.00 | 0.28 | 0.00 | 84 | 1015.6 |
| 20260902063313 | 65 | 254 | 1.0 | 7.0 | 0.00 | 0.28 | 0.00 | 85 | 1015.6 |
| 20260902062832 | 65 | 238 | 2.0 | 7.0 | 0.00 | 0.28 | 0.00 | 85 | 1015.8 |
| 20260902062324 | 65 | 122 | 2.0 | 7.0 | 0.00 | 0.28 | 0.00 | 85 | 1015.8 |
| 20260902061810 | 65 | 126 | 3.0 | 7.0 | 0.00 | 0.28 | 0.00 | 85 | 1015.8 |
| 20260902061329 | 65 | 216 | 2.0 | 7.0 | 0.00 | 0.28 | 0.00 | 85 | 1015.5 |
| 20260902060809 | 65 | 246 | 3.0 | 8.0 | 0.00 | 0.28 | 0.00 | 85 | 1015.5 |
| 20260902060323 | 65 | 134 | 2.0 | 8.0 | 0.00 | 0.28 | 0.00 | 85 | 1015.5 |
| 20260902055833 | 65 | 151 | 2.0 | 6.0 | 0.00 | 0.28 | 0.00 | 86 | 1015.4 |
| 20260902055318 | 65 | 115 | 2.0 | 7.0 | 0.00 | 0.28 | 0.00 | 86 | 1015.4 |
| 20260902054821 | 65 | 307 | 2.0 | 7.0 | 0.00 | 0.28 | 0.00 | 85 | 1015.4 |
| 20260902054325 | 66 | 204 | 2.0 | 6.0 | 0.00 | 0.28 | 0.00 | 85 | 1015.4 |
| 20260902053828 | 66 | 137 | 2.0 | 6.0 | 0.00 | 0.28 | 0.00 | 86 | 1015.4 |
| 20260902053319 | 66 | 165 | 2.0 | 5.0 | 0.00 | 0.28 | 0.00 | 86 | 1015.4 |
| 20260902052834 | 66 | 90 | 2.0 | 5.0 | 0.00 | 0.28 | 0.00 | 85 | 1015.2 |
| 20260902052358 | 66 | 165 | 2.0 | 5.0 | 0.00 | 0.28 | 0.00 | 86 | 1015.2 |
| 20260902051820 | 66 | 203 | 2.0 | 5.0 | 0.00 | 0.28 | 0.00 | 85 | 1015.2 |
| 20260902051354 | 66 | 62 | 1.0 | 5.0 | 0.00 | 0.28 | 0.00 | 86 | 1015.0 |
| 20260902050826 | 66 | 128 | 2.0 | 4.0 | 0.00 | 0.28 | 0.00 | 86 | 1015.0 |
| 20260902050322 | 66 | 317 | 2.0 | 5.0 | 0.00 | 0.28 | 0.00 | 86 | 1015.0 |
| 20260902045834 | 66 | 229 | 2.0 | 5.0 | 0.00 | 0.28 | 0.00 | 86 | 1014.9 |
| 20260902045325 | 66 | 101 | 2.0 | 5.0 | 0.00 | 0.28 | 0.00 | 86 | 1014.9 |
| 20260902044832 | 66 | 18 | 2.0 | 7.0 | 0.00 | 0.28 | 0.00 | 85 | 1014.9 |
| 20260902044323 | 66 | 78 | 1.0 | 7.0 | 0.00 | 0.28 | 0.00 | 85 | 1014.9 |
| 20260902043831 | 66 | 355 | 1.0 | 7.0 | 0.00 | 0.28 | 0.00 | 86 | 1014.9 |
| 20260902043318 | 66 | 265 | 2.0 | 7.0 | 0.00 | 0.28 | 0.00 | 85 | 1014.9 |
| 20260902042829 | 66 | 107 | 2.0 | 7.0 | 0.00 | 0.28 | 0.00 | 86 | 1014.8 |
| 20260902042315 | 65 | 113 | 2.0 | 7.0 | 0.00 | 0.28 | 0.00 | 86 | 1014.8 |
| 20260902041845 | 65 | 5 | 2.0 | 7.0 | 0.00 | 0.28 | 0.00 | 86 | 1014.8 |
| 20260902041333 | 65 | 329 | 1.0 | 5.0 | 0.00 | 0.28 | 0.00 | 86 | 1014.7 |
| 20260902040824 | 65 | 51 | 1.0 | 5.0 | 0.00 | 0.28 | 0.00 | 87 | 1014.7 |
| 20260902040400 | 65 | 41 | 327.0 | 5.0 | 0.00 | 0.28 | 0.28 | 87 | 1014.7 |
| 20260902035815 | 65 | 158 | 327.0 | 5.0 | 0.00 | 0.28 | 0.28 | 87 | 1014.6 |
| 20260902035318 | 65 | 175 | 327.0 | 2.0 | 0.00 | 0.28 | 0.28 | 86 | 1014.6 |
| 20260902034830 | 0 | 0.0 | 0.0 | 0.00 | 0.28 | 0.28 | 1014.6 | ||
| 20260902034315 | 0 | 0.0 | 0.0 | 0.00 | 0.28 | 0.28 | 1014.3 | ||
| 20260902033839 | 0 | 0.0 | 0.0 | 0.00 | 0.28 | 0.28 | 1014.3 | ||
| 20260902033331 | 0 | 0.0 | 0.0 | 0.00 | 0.28 | 0.28 | 1014.3 | ||
| 20260902032814 | 0 | 0.0 | 0.0 | 0.00 | 0.28 | 0.28 | 1013.9 | ||
| 20260902032317 | 0 | 0.0 | 0.0 | 0.00 | 0.28 | 0.28 | 1013.9 | ||
| 20260902031821 | 0 | 0.0 | 0.0 | 0.00 | 0.28 | 0.28 | 1013.9 | ||
| 20260902031315 | 0 | 0.0 | 0.0 | 0.00 | 0.28 | 0.28 | 1013.8 | ||
| 20260902030840 | 0 | 0.0 | 0.0 | 0.00 | 0.28 | 0.28 | 1013.8 | ||
| 20260902030342 | 0 | 0.0 | 0.0 | 0.00 | 0.28 | 0.28 | 1013.8 | ||
| 20260902025833 | 0 | 0.0 | 0.0 | 0.00 | 0.28 | 0.28 | 1014.1 | ||
| 20260902025314 | 0 | 0.0 | 0.0 | 0.00 | 0.28 | 0.28 | 1014.1 | ||
| 20260902024817 | 0 | 0.0 | 0.0 | 0.00 | 0.28 | 0.28 | 1014.1 | ||
| 20260902024316 | 0 | 0.0 | 0.0 | 0.00 | 0.28 | 0.28 | 1014.3 | ||
| 20260902023815 | 0 | 0.0 | 0.0 | 0.00 | 0.28 | 0.28 | 1014.3 | ||
| 20260902023318 | 0 | 0.0 | 0.0 | 0.00 | 0.28 | 0.28 | 1014.3 | ||
| 20260902022821 | 0 | 0.0 | 0.0 | 0.00 | 0.28 | 0.28 | 1014.0 | ||
| 20260902022315 | 0 | 0.0 | 0.0 | 0.00 | 0.28 | 0.28 | 1014.0 | ||
| 20260902021839 | 0 | 0.0 | 0.0 | 0.00 | 0.28 | 0.28 | 1014.0 | ||
| 20260902021322 | 0 | 0.0 | 0.0 | 0.00 | 0.28 | 0.28 | 1014.2 | ||
| 20260902020323 | 0 | 0.0 | 0.0 | 0.00 | 0.28 | 0.28 | 1014.2 | ||
| 20260902015826 | 0 | 0.0 | 0.0 | 0.00 | 0.28 | 0.28 | 1014.0 | ||
| 20260902015330 | 0 | 0.0 | 0.0 | 0.00 | 0.28 | 0.28 | 1014.0 | ||
| 20260902014813 | 0 | 0.0 | 0.0 | 0.00 | 0.28 | 0.28 | 1014.0 | ||
| 20260902014316 | 0 | 0.0 | 0.0 | 0.00 | 0.28 | 0.28 | 1013.7 | ||
| 20260902013838 | 0 | 0.0 | 0.0 | 0.00 | 0.28 | 0.28 | 1013.7 | ||
| 20260902013328 | 0 | 0.0 | 0.0 | 0.00 | 0.28 | 0.28 | 1013.7 | ||
| 20260902012814 | 0 | 0.0 | 0.0 | 0.00 | 0.28 | 0.28 | 1013.8 | ||
| 20260902012317 | 0 | 0.0 | 0.0 | 0.00 | 0.28 | 0.28 | 1013.8 | ||
| 20260902011843 | 0 | 0.0 | 0.0 | 0.00 | 0.28 | 0.28 | 1013.8 | ||
| 20260902011339 | 0 | 0.0 | 0.0 | 0.00 | 0.28 | 0.28 | 1013.8 | ||
| 20260902010904 | 0 | 0.0 | 0.0 | 0.00 | 0.28 | 0.28 | 1013.8 | ||
| 20260902010316 | 0 | 0.0 | 0.0 | 0.00 | 0.28 | 0.28 | 1013.8 | ||
| 20260902005332 | 67 | 30 | 2.0 | 9.0 | 0.00 | 0.28 | 0.28 | 84 | 1013.6 |
| 20260902004824 | 67 | 298 | 2.0 | 9.0 | 0.00 | 0.28 | 0.28 | 84 | 1013.6 |
| 20260902004331 | 67 | 190 | 3.0 | 9.0 | 0.00 | 0.28 | 0.28 | 84 | 1013.8 |
| 20260902003834 | 67 | 311 | 3.0 | 9.0 | 0.00 | 0.28 | 0.28 | 84 | 1013.8 |
| 20260902003327 | 67 | 36 | 3.0 | 9.0 | 0.00 | 0.28 | 0.28 | 85 | 1013.8 |
| 20260902002819 | 67 | 340 | 3.0 | 9.0 | 0.00 | 0.28 | 0.28 | 85 | 1013.5 |
| 20260902002325 | 67 | 53 | 3.0 | 8.0 | 0.00 | 0.28 | 0.28 | 85 | 1013.5 |
| 20260902001902 | 67 | 61 | 2.0 | 8.0 | 0.00 | 0.28 | 0.28 | 85 | 1013.5 |
| 20260902001326 | 67 | 325 | 2.0 | 8.0 | 0.00 | 0.28 | 0.28 | 85 | 1013.3 |
| 20260902000829 | 67 | 327 | 2.0 | 8.0 | 0.00 | 0.28 | 0.28 | 85 | 1013.3 |
| 20260902000323 | 67 | 121 | 2.0 | 9.0 | 0.00 | 0.28 | 0.28 | 85 | 1013.3 |
| 20260901235832 | 67 | 27 | 3.0 | 9.0 | 0.00 | 0.28 | 0.28 | 85 | 1013.2 |
| 20260901235327 | 67 | 198 | 3.0 | 9.0 | 0.00 | 0.28 | 0.28 | 85 | 1013.2 |
| 20260901234830 | 67 | 265 | 2.0 | 6.0 | 0.00 | 0.28 | 0.28 | 85 | 1013.2 |
| 20260901234312 | 67 | 106 | 2.0 | 6.0 | 0.00 | 0.28 | 0.28 | 86 | 1013.2 |
| 20260901233818 | 67 | 161 | 2.0 | 6.0 | 0.00 | 0.28 | 0.28 | 86 | 1013.2 |
| 20260901233320 | 67 | 159 | 2.0 | 8.0 | 0.00 | 0.28 | 0.28 | 86 | 1013.2 |
| 20260901232824 | 66 | 196 | 3.0 | 8.0 | 0.00 | 0.28 | 0.28 | 86 | 1013.2 |
| 20260901232328 | 66 | 265 | 2.0 | 7.0 | 0.00 | 0.28 | 0.28 | 86 | 1013.2 |
| 20260901231831 | 66 | 136 | 2.0 | 5.0 | 0.00 | 0.28 | 0.28 | 86 | 1013.2 |
| 20260901231316 | 67 | 327 | 2.0 | 8.0 | 0.00 | 0.28 | 0.28 | 86 | 1013.2 |
| 20260901230819 | 67 | 271 | 2.0 | 8.0 | 0.00 | 0.28 | 0.28 | 86 | 1013.2 |
| 20260901230351 | 67 | 242 | 3.0 | 10.0 | 0.00 | 0.28 | 0.28 | 86 | 1013.2 |
| 20260901225818 | 67 | 5 | 3.0 | 10.0 | 0.00 | 0.28 | 0.28 | 86 | 1012.9 |
| 20260901225324 | 67 | 146 | 3.0 | 9.0 | 0.00 | 0.28 | 0.28 | 86 | 1012.9 |
| 20260901224827 | 67 | 165 | 3.0 | 9.0 | 0.00 | 0.28 | 0.28 | 86 | 1012.9 |
| 20260901224331 | 67 | 167 | 2.0 | 8.0 | 0.00 | 0.28 | 0.28 | 87 | 1013.2 |
| 20260901223842 | 67 | 80 | 3.0 | 6.0 | 0.00 | 0.28 | 0.28 | 87 | 1013.2 |
| 20260901223424 | 67 | 240 | 3.0 | 6.0 | 0.00 | 0.28 | 0.28 | 87 | 1013.2 |
| 20260901222836 | 67 | 240 | 3.0 | 6.0 | 0.00 | 0.28 | 0.28 | 87 | 1013.2 |
| 20260901222318 | 67 | 92 | 3.0 | 9.0 | 0.00 | 0.28 | 0.28 | 87 | 1013.2 |
| 20260901221830 | 67 | 94 | 3.0 | 9.0 | 0.00 | 0.28 | 0.28 | 86 | 1013.2 |
| 20260901221319 | 67 | 336 | 2.0 | 9.0 | 0.00 | 0.28 | 0.28 | 86 | 1013.2 |